Preview of NWS' New Version of Forecast
This preview is not operational and should not be used for support decisions.

Regional Weather Roundup (RWR)

Issued by National Weather Service (NWS)

                            
000
ASUS45 KCYS 182210
RWRWY 

WYOMING REGIONAL WEATHER ROUNDUP
NATIONAL WEATHER SERVICE CHEYENNE WY
300 PM MST MON FEB 18 2019

NOTE:  "FAIR" INDICATES FEW OR NO CLOUDS BELOW 12,000 FEET
WITH NO SIGNIFICANT WEATHER AND/OR OBSTRUCTIONS TO VISIBILITY.

WYZ001-182300-
...YELLOWSTONE NATIONAL PARK...
  
CITY           SKY/WX    TMP DP  RH WIND       PRES   REMARKS
LK YELLOWSTONE   N/A     10   6  84 S3        29.81F                  
W YELLOWSTONE  NOT AVBL                                               

$$
WYZ002>013-054>058-071-098>099-182300-
...NORTHERN WYOMING...
  
CITY           SKY/WX    TMP DP  RH WIND       PRES   REMARKS
JACKSON        MOSUNNY   19   4  51 SE5       29.89F WCI  12          
CODY           CLOUDY    15   4  61 NE9       30.01F WCI   3          
GREYBULL       SUNNY     18   6  59 W6        30.08F WCI  10          
WORLAND        SUNNY     19   7  59 N5        30.05F WCI  12          
SHERIDAN       CLOUDY    11   1  64 NE8       30.14F WCI  -1          
BUFFALO        PTSUNNY   14   2  58 SE10      30.02F WCI   1          
GILLETTE       SUNNY      9  -2  61 E8        30.11F WCI  -3          
HULETT         FAIR       9  -4  56 MISG      30.16F                  
NEWCASTLE        N/A      7  -4  61 CALM      30.17F                  

$$
WYZ014>020-022>026-101>103-182300-
...CENTRAL WYOMING...
  
CITY           SKY/WX    TMP DP  RH WIND       PRES   REMARKS
BIG PINEY      SUNNY      7  -1  70 CALM      29.89F                  
PINEDALE       SUNNY     10   0  61 CALM      29.88F                  
DUBOIS         FAIR      12   3  67 CALM      29.82F                  
LANDER         CLOUDY    14   5  67 CALM      29.95F                  
RIVERTON       CLOUDY    15   4  61 E3        29.96F                  
CASPER         SUNNY     13   3  64 E6        30.00F WCI   4          
DOUGLAS        CLOUDY    16   4  59 SE12      30.05S WCI   3          

$$
WYZ021-027>030-104>119-182300-
...SOUTHERN WYOMING...
  
CITY           SKY/WX    TMP DP  RH WIND       PRES   REMARKS
EVANSTON       SUNNY     10   2  69 NW5       29.86F WCI   2          
KEMMERER       SUNNY     16   3  57 CALM      29.87S                  
FORT BRIDGER   SUNNY     10   3  72 CALM      29.91F                  
ROCK SPRINGS   MOSUNNY   11   2  67 E7        29.88F WCI   0          
DIXON          FAIR      16   7  66 CALM      29.89S                  
RAWLINS        CLOUDY    14   6  70 NE8       29.87F WCI   3          
SARATOGA       PTSUNNY   19  10  68 CALM      29.86S                  
LARAMIE        SUNNY     11   3  70 SE17      29.82S WCI  -6          
CHEYENNE       LGT SNOW  11   5  77 S16G23    29.97S WCI  -6          
TORRINGTON     PTSUNNY   18   2  49 E14       30.12F WCI   4          
PINE BLUFFS    CLOUDY    18   5  57 SE14      30.06S WCI   4          

$$